Weather History for KBTL - January, 2013

Change the Weather History Date:

Saturday, January 5, 2013

  Actual Average Record
Temperature  
Mean Temperature 27 °F 24 °F  
Max Temperature 35 °F 32 °F 53 °F (1998)
Min Temperature 19 °F 16 °F -14 °F (1999)
Degree Days  
Heating Degree Days 38 41  
Month to date heating degree days 210 205  
Since 1 July heating degree days 2571 2805  
Cooling Degree Days 0 0  
Month to date cooling degree days 0 0  
Year to date cooling degree days 0 0  
Moisture  
Dew Point 24 °F    
Average Humidity 78    
Maximum Humidity 92    
Minimum Humidity 64    
Precipitation  
Precipitation 0.00 in 0.07 in 0.14 in (2007)
Month to date precipitation T 0.34  
Year to date precipitation T 0.34  
Sea Level Pressure  
Sea Level Pressure 30.13 in    
Wind  
Wind Speed 11 mph (SSW)    
Max Wind Speed 21 mph    
Max Gust Speed 25 mph    
Visibility 6 miles    
Events Snow    
T = Trace of Precipitation, MM = Missing Value Source: NWS Daily Summary

Daily Weather History Graph

Daily Weather History Graph

Search for Another Location

Airport or City:

Trip Planner

Search our weather history database for the weather conditions in past years. The results will help you decide how hot, cold, wet, or windy it might be!

Date:

Astronomy

Jan. 05, 2013 Rise Set
Actual Time 8:10 AM EST 5:23 PM EST
Civil Twilight 7:38 AM EST 5:54 PM EST
Nautical Twilight 7:03 AM EST 6:30 PM EST
Astronomical Twilight 6:29 AM EST 7:03 PM EST
Moon 1:11 AM EST (1/5) 12:16 PM EST (1/5)
Length of Visible Light 10h 16m
Length of Day
9h 13m
Last Quarter, 44% of the Moon is Illuminated
Jan 5
Last Quarter
Jan 11
New
Jan 18
First Quarter
Jan 26
Full
Feb 3
Last Quarter

Hourly Weather History & Observations

Time (EST) Temp. Windchill Dew Point Humidity Pressure Visibility Wind Dir Wind Speed Gust Speed Precip Events Conditions
12:53 AM 23.0 °F 12.4 °F 19.0 °F 85% 30.22 in 9.0 mi SW 10.4 mph - N/A   Scattered Clouds
1:04 AM 24.8 °F 15.3 °F 19.4 °F 80% 30.18 in 9.0 mi SW 9.2 mph - N/A   Mostly Cloudy
1:53 AM 25.0 °F 14.8 °F 19.9 °F 81% 30.24 in 9.0 mi SW 10.4 mph - N/A   Overcast
2:53 AM 25.0 °F 14.8 °F 19.9 °F 81% 30.25 in 9.0 mi SW 10.4 mph - N/A   Overcast
3:53 AM 21.0 °F 13.4 °F 17.1 °F 85% 30.26 in 8.0 mi SSW 5.8 mph - N/A   Mostly Cloudy
4:02 AM 21.2 °F 11.7 °F 17.6 °F 86% 30.22 in 8.0 mi SSW 8.1 mph - N/A   Scattered Clouds
4:53 AM 21.2 °F 13.6 °F 17.6 °F 86% 30.21 in 7.0 mi South 5.8 mph - N/A   Clear
5:53 AM 19.9 °F 11.1 °F 17.1 °F 89% 30.26 in 7.0 mi SSW 6.9 mph - N/A   Mostly Cloudy
6:20 AM 21.2 °F 10.1 °F 17.6 °F 86% 30.22 in 7.0 mi SSW 10.4 mph - N/A   Overcast
6:53 AM 23.0 °F 14.7 °F 19.0 °F 85% 30.26 in 8.0 mi South 6.9 mph - N/A   Overcast
7:53 AM 23.0 °F 13.1 °F 19.0 °F 85% 30.25 in 8.0 mi South 9.2 mph - N/A   Overcast
8:50 AM 21.2 °F 12.6 °F 17.6 °F 86% 30.22 in 7.0 mi South 6.9 mph - N/A   Scattered Clouds
8:53 AM 21.9 °F 13.4 °F 18.0 °F 85% 30.26 in 7.0 mi South 6.9 mph - N/A   Partly Cloudy
9:53 AM 25.0 °F 18.1 °F 19.9 °F 81% 30.25 in 8.0 mi South 5.8 mph - N/A   Clear
10:53 AM 27.0 °F 16.7 °F 21.0 °F 78% 30.26 in 8.0 mi SSW 11.5 mph - N/A   Clear
11:53 AM 28.0 °F 17.5 °F 21.0 °F 75% 30.22 in 9.0 mi SSW 12.7 mph - N/A   Clear
12:53 PM 30.9 °F 20.2 °F 21.9 °F 69% 30.19 in 10.0 mi SSW 15.0 mph - N/A   Clear
1:53 PM 30.9 °F 21.7 °F 23.0 °F 72% 30.15 in 10.0 mi SSW 11.5 mph - N/A   Clear
2:53 PM 35.1 °F 26.9 °F 24.1 °F 64% 30.11 in 10.0 mi SSW 11.5 mph - N/A   Clear
3:53 PM 34.0 °F 26.0 °F 24.1 °F 67% 30.10 in 10.0 mi SSW 10.4 mph - N/A   Partly Cloudy
4:53 PM 33.1 °F 23.9 °F 24.1 °F 70% 30.10 in 10.0 mi SSW 12.7 mph - N/A   Overcast
5:53 PM 32.0 °F 23.0 °F 24.1 °F 73% 30.09 in 10.0 mi SSW 11.5 mph - N/A   Overcast
6:53 PM 32.0 °F 21.6 °F 25.0 °F 75% 30.09 in 7.0 mi SW 15.0 mph - 0.00 in Snow Light Snow
7:19 PM 30.2 °F 21.3 °F 26.6 °F 86% 30.06 in 2.0 mi SSW 10.4 mph - 0.00 in Snow Light Snow
7:26 PM 30.2 °F 20.8 °F 26.6 °F 86% 30.05 in 1.8 mi SSW 11.5 mph - 0.00 in Snow Light Snow
7:34 PM 30.2 °F 21.3 °F 26.6 °F 86% 30.05 in 1.2 mi SSW 10.4 mph - 0.00 in Snow Light Snow
7:53 PM 30.9 °F 22.8 °F 28.0 °F 89% 30.08 in 1.5 mi SSW 9.2 mph - 0.00 in Snow Light Snow
8:15 PM 30.2 °F 20.2 °F 28.4 °F 93% 30.04 in 1.2 mi SSW 12.7 mph - 0.00 in Snow Light Snow
8:19 PM 30.2 °F 20.2 °F 28.4 °F 93% 30.04 in 2.0 mi SSW 12.7 mph - 0.00 in Snow Light Snow
8:37 PM 30.2 °F 19.8 °F 28.4 °F 93% 30.04 in 1.8 mi SSW 13.8 mph - 0.00 in Snow Light Snow
8:41 PM 30.2 °F 20.8 °F 28.4 °F 93% 30.03 in 2.0 mi SSW 11.5 mph - 0.00 in Snow Light Snow
8:50 PM 30.2 °F 20.2 °F 28.4 °F 93% 30.03 in 4.0 mi SSW 12.7 mph - 0.00 in Snow Light Snow
8:51 PM 30.9 °F 21.2 °F 28.0 °F 89% 30.07 in 5.0 mi SSW 12.7 mph - 0.00 in   Overcast
9:53 PM 32.0 °F 22.1 °F 28.9 °F 88% 30.05 in 3.0 mi SSW 13.8 mph - 0.00 in Snow Light Snow
10:16 PM 32.0 °F 22.5 °F 28.4 °F 87% 30.01 in 2.0 mi SSW 12.7 mph - 0.00 in Snow Light Snow
10:36 PM 32.0 °F 21.6 °F 28.4 °F 87% 30.01 in 3.0 mi SSW 15.0 mph - 0.00 in Snow Light Snow
10:44 PM 32.0 °F 21.6 °F 28.4 °F 87% 30.00 in 2.5 mi SSW 15.0 mph - 0.00 in Snow Light Snow
10:53 PM 32.0 °F 20.8 °F 28.9 °F 88% 30.04 in 4.0 mi SSW 17.3 mph - 0.00 in Snow Light Snow
11:30 PM 33.8 °F 23.5 °F 28.4 °F 81% 29.99 in 7.0 mi SSW 16.1 mph 25.3 mph 0.00 in   Overcast
11:53 PM 32.0 °F 20.1 °F 28.0 °F 85% 30.01 in 8.0 mi SSW 19.6 mph 24.2 mph 0.00 in   Overcast